Volver al catálogo

STARLINK-36254

ActivoComunicacionesVLEO
NORAD 68338·PAYLOAD·🇺🇸 United States

Lanzado Mar 22, 2026 desde Cape Canaveral Space Force Station

Loading…

Próximos Pases (próximas 24 horas)

TLE

ActualizadoSource: CelesTrak SupGP

Época: Sep 15, 2026, 04:15 UTC

1 68338C 26059T   26258.17756944  .00003472  00000+0  10259-3 0  2589
2 68338  53.1574 180.2760 0001271  86.3455  41.0515 15.34384618    11

Sigue STARLINK-36254 en tiempo real con AllMySat

Download on the App Store